Weather History for Krabi, Thailand

Change the Weather History Date:

Tuesday, April 1, 2014

  Actual Average (VTSP) Record (VTSP)
Temperature  
Mean Temperature 82 °F -  
Max Temperature 89 °F 92 °F 104 °F (1998)
Min Temperature 75 °F 77 °F 69 °F (2014)
Cooling Degree Days 17    
Growing Degree Days 32 (Base 50)    
Moisture  
Dew Point 75 °F    
Average Humidity 81    
Maximum Humidity 94    
Minimum Humidity 62    
Precipitation  
Precipitation 0.00 in - - ()
Sea Level Pressure  
Sea Level Pressure 29.78 in    
Wind  
Wind Speed 2 mph ()    
Max Wind Speed 8 mph    
Max Gust Speed -    
Visibility 4.3 miles    
Events Rain    
Averages and records for this station are not official NWS values.
T = Trace of Precipitation, MM = Missing Value Source: Averaged Metar Reports

Daily Weather History Graph

Daily Weather History Graph

Search for Another Location

Airport:

Trip Planner

Search our weather history database for the weather conditions in past years. The results will help you decide how hot, cold, wet, or windy it might be!

Date:

Astronomy

Apr. 01, 2014 Rise Set
Actual Time 6:22 AM ICT 6:33 PM ICT
Civil Twilight 6:01 AM ICT 6:54 PM ICT
Nautical Twilight 5:36 AM ICT 7:19 PM ICT
Astronomical Twilight 5:12 AM ICT 7:43 PM ICT
Moon 7:21 AM ICT (4/1) 8:00 PM ICT (4/1)
Length of Visible Light 12h 53m
Length of Day
12h 11m
Waxing Crescent, 3% of the Moon is Illuminated
Apr 1
Waxing Crescent
Apr 7
First Quarter
Apr 15
Full
Apr 22
Last Quarter
Apr 29
New

Hourly Weather History & Observations

Time (ICT) Temp. Heat Index Dew Point Humidity Pressure Visibility Wind Dir Wind Speed Gust Speed Precip Events Conditions
1:00 AM 77.0 °F - 75.2 °F 94% 29.80 in 3.1 mi Calm Calm - N/A   Scattered Clouds
5:00 AM 77.0 °F - 75.2 °F 94% 29.77 in 2.5 mi Calm Calm - N/A   Overcast
6:00 AM 77.0 °F - 75.2 °F 94% 29.77 in 2.5 mi Calm Calm - N/A   Overcast
7:00 AM 77.0 °F - 75.2 °F 94% 29.80 in 1.2 mi Calm Calm - N/A   Overcast
8:00 AM 77.0 °F - 75.2 °F 94% 29.83 in 1.9 mi Calm Calm - N/A   Overcast
9:00 AM 80.6 °F 87.1 °F 77.0 °F 89% 29.83 in 3.1 mi Calm Calm - N/A   Mostly Cloudy
10:00 AM 82.4 °F 89.5 °F 75.2 °F 79% 29.86 in 5.0 mi Variable 2.3 mph - N/A   Mostly Cloudy
11:00 AM 84.2 °F 92.3 °F 75.2 °F 74% 29.86 in 5.0 mi WSW 3.5 mph - N/A   Mostly Cloudy
12:00 PM 86.0 °F 95.1 °F 75.2 °F 70% 29.86 in 5.0 mi SSW 5.8 mph - N/A   Mostly Cloudy
1:00 PM 87.8 °F 97.6 °F 75.2 °F 66% 29.80 in 5.6 mi SW 5.8 mph - N/A   Mostly Cloudy
2:00 PM 89.6 °F 99.8 °F 75.2 °F 62% 29.77 in 5.6 mi WSW 6.9 mph - N/A   Mostly Cloudy
3:00 PM 89.6 °F 99.8 °F 75.2 °F 62% 29.74 in 5.6 mi West 6.9 mph - N/A   Mostly Cloudy
4:00 PM 87.8 °F 97.6 °F 75.2 °F 66% 29.71 in 6.2 mi SW 8.1 mph - N/A   Mostly Cloudy
5:00 PM 89.6 °F 99.8 °F 75.2 °F 62% 29.71 in 6.2 mi SSW 8.1 mph - N/A   Scattered Clouds
6:00 PM 86.0 °F 95.1 °F 75.2 °F 70% 29.74 in 6.2 mi SW 6.9 mph - N/A   Scattered Clouds
7:00 PM 80.6 °F 85.4 °F 73.4 °F 79% 29.74 in 1.2 mi North 6.9 mph - N/A Rain Heavy Rain
8:00 PM 75.2 °F - 73.4 °F 94% 29.74 in 5.0 mi Calm Calm - N/A   Mostly Cloudy
9:00 PM 75.2 °F - 73.4 °F 94% 29.77 in 5.6 mi Calm Calm - N/A   Mostly Cloudy
10:00 PM 75.2 °F - 73.4 °F 94% 29.80 in 5.0 mi Calm Calm - N/A   Mostly Cloudy